Garrison, ND

5:14 PM CDT on April 28, 2017 (GMT -0500)
Garrison

Weather History for KN60 - February, 2013

Change the Weather History Date:

Tuesday, February 12, 2013

  Actual Average Record
Temperature  
Mean Temperature 25 °F -  
Max Temperature 34 °F - 46 °F (2005)
Min Temperature 15 °F - -14 °F (1997)
Degree Days  
Heating Degree Days 40    
Month to date heating degree days 548  
Cooling Degree Days 0    
Moisture  
Dew Point 20 °F    
Average Humidity 77    
Maximum Humidity 84    
Minimum Humidity 69    
Precipitation  
Precipitation 0.00 in - 0.06 in (2007)
Month to date precipitation 0.26  
Year to date precipitation 0.76  
Sea Level Pressure  
Sea Level Pressure 29.89 in    
Wind  
Wind Speed 13 mph (WNW)    
Max Wind Speed 20 mph    
Max Gust Speed 28 mph    
T = Trace of Precipitation, MM = Missing Value Source: NWS Daily Summary

Daily Weather History Graph

Daily Weather History Graph

Search for Another Location

Airport or City:

Trip Planner

Search our weather history database for the weather conditions in past years. The results will help you decide how hot, cold, wet, or windy it might be!

Date:

Astronomy

Feb. 12, 2013 Rise Set
Actual Time 7:55 AM CST 6:04 PM CST
Civil Twilight 7:23 AM CST 6:36 PM CST
Nautical Twilight 6:47 AM CST 7:12 PM CST
Astronomical Twilight 6:12 AM CST 7:48 PM CST
Moon 8:38 AM CST (2/12) 9:25 PM CST (2/12)
Length of Visible Light 11h 12m
Length of Day
10h 08m
Waxing Crescent, 7% of the Moon is Illuminated
Feb 12
Waxing Crescent
Feb 17
First Quarter
Feb 25
Full
Mar 4
Last Quarter
Mar 11
New

Hourly Weather History & Observations

Time (CST) Temp. Windchill Dew Point Humidity Pressure Visibility Wind Dir Wind Speed Gust Speed Precip Events Conditions
12:52 AM 21.9 °F 9.2 °F 15.1 °F 75% 29.86 in - WNW 13.8 mph - N/A   Unknown
1:52 AM 21.9 °F 11.0 °F 16.0 °F 78% 29.85 in - WNW 10.4 mph - N/A   Unknown
2:52 AM 21.9 °F 9.8 °F 16.0 °F 78% 29.86 in - West 12.7 mph - N/A   Unknown
3:52 AM 19.9 °F 7.3 °F 15.1 °F 81% 29.87 in - WNW 12.7 mph - N/A   Unknown
4:52 AM 19.9 °F 7.9 °F 15.1 °F 81% 29.88 in - WNW 11.5 mph 19.6 mph N/A   Unknown
5:52 AM 19.9 °F 8.6 °F 15.1 °F 81% 29.90 in - WNW 10.4 mph - N/A   Unknown
6:52 AM 19.9 °F 6.7 °F 15.1 °F 81% 29.90 in - WNW 13.8 mph - N/A   Unknown
7:52 AM 19.0 °F 9.0 °F 15.1 °F 85% 29.91 in - West 8.1 mph - N/A   Unknown
8:52 AM 21.0 °F 7.6 °F 16.0 °F 81% 29.92 in - WNW 15.0 mph - N/A   Unknown
9:52 AM 23.0 °F 10.1 °F 17.1 °F 78% 29.93 in - West 15.0 mph - 0.01 in   Unknown
10:52 AM 26.1 °F 13.1 °F 19.0 °F 75% 29.94 in - West 17.3 mph - N/A   Unknown
11:52 AM 27.0 °F 13.9 °F 19.9 °F 75% 29.93 in - West 18.4 mph - N/A   Unknown
12:52 PM 28.9 °F 17.3 °F 21.9 °F 75% 29.92 in - WNW 16.1 mph - N/A   Unknown
1:52 PM 30.9 °F 20.7 °F 23.0 °F 72% 29.91 in - WNW 13.8 mph - N/A   Unknown
2:52 PM 33.1 °F 22.6 °F 24.1 °F 70% 29.89 in - WNW 16.1 mph 24.2 mph N/A   Unknown
3:52 PM 34.0 °F 24.6 °F 26.1 °F 73% 29.90 in - WNW 13.8 mph - N/A   Unknown
4:52 PM 34.0 °F 25.0 °F 26.1 °F 73% 29.90 in - WNW 12.7 mph - N/A   Unknown
5:52 PM 33.1 °F 24.4 °F 26.1 °F 75% 29.88 in - WNW 11.5 mph - N/A   Unknown
6:52 PM 32.0 °F 27.5 °F 26.1 °F 79% 29.88 in - WNW 4.6 mph - N/A   Unknown
7:52 PM 30.0 °F 24.1 °F 24.1 °F 79% 29.89 in - WNW 5.8 mph - N/A   Unknown
8:52 PM 28.0 °F 20.0 °F 24.1 °F 85% 29.86 in - West 8.1 mph - N/A   Unknown
9:52 PM 28.0 °F 24.2 °F 23.0 °F 81% 29.84 in - West 3.5 mph - N/A   Unknown
10:52 PM 32.0 °F 22.1 °F 25.0 °F 75% 29.82 in - WNW 13.8 mph - N/A   Unknown
11:52 PM 30.9 °F 21.2 °F 24.1 °F 76% 29.81 in - WNW 12.7 mph - N/A   Unknown